KRYYKDBN

Guest
Details From KRYY - Cobb Co Mc Collum Fld
To KDBN - W H Bud Barron
Flight Number -
Tags Decoded
Created
Modified
Stats Distance 129 nm / 239 km
Max Altitude 0 ft / 0 m
Waypoints 3
Social Downloads 1
Likes 0
Share VATSIM

Download

Looking for another format? Having issues loading an existing format? Contact us
Advertisement - Login to hide

Notes

Decoded

Route

KRYY TUCKR DBN

ID Type Via Altitude Latitude Longitude Leg Dist Tot Dist Heading (true) Name
O KRYY APT - 0 ft / 0 m 34.01301˚ -84.60740˚ - 0 nm - -
TUCKR FIX - 0 ft / 0 m 33.75242˚ -83.84839˚ 40 nm 40 nm 112° / 113° -
O DBN VOR - 0 ft / 0 m 32.56344˚ -82.83001˚ 87 nm 128 nm 144° / 145° DUBLIN VORTAC

Altitude Profile

Advertisement - Login to hide

KRYY

Details ICAO KRYY (RYY)
Name COBB CO MC COLLUM FLD
Region United States
Timezone America/New_York (UTC-4.0)
Stats Elevation 1,040 ft / 317 m (AMSL)
Location 34.013193° -84.597000°
Runways 1
Magnetic Variation 5.066° W

METAR

KRYY 250048Z 00000KT 10SM SCT045 27/19 A3005 RMK AO2 LTG DSNT NE-SE SLP897 T02720194

Decode

TAF

TAF KRYY 242324Z 2500/2524 09004KT P6SM SCT050 TEMPO 2501/2504 VRB10G15KT 4SM TSRA OVC025CB FM250400 10004KT P6SM VCSH OVC015 FM250700 10004KT P6SM OVC007 FM251100 09003KT P6SM VCSH OVC004 FM251500 10004KT P6SM VCSH OVC015 FM252000 12005KT 4SM TSRA OVC025CB

Decode

Departure Runways

ID Width Length Bearing (true) Bearing (mag) Surface Threshold Offset Overrun Length
09 75 ft / 23 m 6,293 ft / 1,918 m 88.76° 93.83° Asphalt 1,073 ft / 327 m 840 ft / 256 m
27 75 ft / 23 m 6,293 ft / 1,918 m 268.78° 273.85° Asphalt 0 ft / 0 m 0 ft / 0 m

KDBN

Details ICAO KDBN
Name W H BUD BARRON
Region United States
Timezone America/New_York (UTC-4.0)
Stats Elevation 309 ft / 94 m (AMSL)
Location 32.564324° -82.985574°
Runways 2
Magnetic Variation 5.956° W

METAR

KDBN 250135Z AUTO 16004KT 10SM OVC006 22/21 A3009 RMK AO2 LTG DSNT S

Decode

TAF

Not found

Destination Runways

ID Width Length Bearing (true) Bearing (mag) Surface Threshold Offset Overrun Length
02 150 ft / 46 m 6,018 ft / 1,834 m 16.23° 22.19° Asphalt 0 ft / 0 m 0 ft / 0 m
14 150 ft / 46 m 5,006 ft / 1,526 m 136.47° 142.43° Asphalt 591 ft / 180 m 0 ft / 0 m
20 150 ft / 46 m 6,018 ft / 1,834 m 196.24° 202.20° Asphalt 0 ft / 0 m 0 ft / 0 m
32 150 ft / 46 m 5,006 ft / 1,526 m 316.48° 322.44° Asphalt 0 ft / 0 m 0 ft / 0 m